GFSSW_925_spd_210.txt.gz
Wind_Speed
12 12 12 12 12 12 12 13 13 13 13 13 13 12 11 13 16 16 12 11 7 12 14 11 8 9 4 3 3 4 2 5 6 6 4 5 2 1 2 8 1 5 7 12 33
12 13 13 14 13 13 13 12 13 12 12 12 11 11 10 11 14 17 24 23 18 15 11 6 6 9 4 4 4 5 5 8 5 3 1 5 6 6 1 6 1 2 3 34 36
13 15 16 16 15 14 13 12 12 12 11 11 11 10 7 9 5 5 7 12 18 18 16 13 11 12 7 4 6 6 6 5 4 1 4 4 7 5 4 5 7 9 15 26 29
16 17 17 16 15 13 13 12 12 11 11 11 10 10 6 2 4 7 9 19 8 8 15 11 7 6 13 11 5 5 9 6 3 3 4 4 8 9 6 6 8 15 24 24 21
18 18 17 15 14 14 14 13 13 13 12 11 9 8 3 3 8 15 13 12 13 5 15 8 10 9 12 12 11 14 7 10 8 3 3 3 5 6 9 8 7 14 19 24 22
18 18 18 17 17 16 15 15 14 13 13 12 10 8 6 11 13 14 11 13 14 10 4 14 4 7 14 9 21 11 9 4 4 2 4 5 7 5 7 5 12 17 19 19 22
20 23 22 21 19 17 15 15 14 14 13 12 10 10 10 16 12 11 8 6 12 13 6 13 16 8 9 10 10 9 12 14 14 3 3 2 11 9 14 8 13 15 17 18 19
21 22 20 17 15 15 14 14 15 14 13 12 10 10 10 8 12 24 26 30 23 18 13 13 15 6 8 12 9 13 11 13 19 16 7 5 15 9 5 10 12 13 12 16 17
18 17 14 9 8 9 12 14 15 14 12 12 11 8 7 4 8 17 19 15 17 23 21 15 8 6 3 13 10 16 11 26 18 26 17 15 4 16 9 9 12 13 13 15 14
15 14 11 7 4 6 10 13 13 9 7 6 5 2 6 5 6 7 12 20 9 4 2 8 6 6 11 12 14 14 24 20 23 18 25 22 13 11 5 8 14 15 14 13 16
13 12 10 8 6 6 9 4 5 3 5 7 7 6 2 8 10 12 4 2 7 7 11 8 10 16 24 19 19 14 16 24 14 12 20 30 20 16 10 7 8 11 14 16 18
10 10 10 8 6 5 5 2 4 3 9 14 20 18 26 27 9 8 6 6 9 15 15 5 20 23 16 14 20 25 18 18 7 14 17 20 27 20 15 11 11 14 15 19 15
8 10 12 12 4 2 3 2 3 2 4 5 5 5 4 3 6 6 7 9 7 14 20 19 10 17 16 18 17 23 16 17 9 11 10 4 13 16 15 13 9 15 19 19 20
7 10 12 14 2 6 1 1 7 3 3 5 3 3 1 3 6 7 16 7 7 18 10 14 15 13 14 17 17 13 14 14 14 14 10 13 11 21 20 13 12 14 17 16 18
8 10 12 9 3 3 1 8 7 3 4 3 3 2 3 6 9 2 11 8 6 12 6 8 12 18 15 20 18 15 14 13 11 13 6 12 8 18 16 26 22 14 15 18 20
9 11 13 5 6 5 5 11 2 1 6 7 4 5 6 6 2 3 7 3 4 6 6 8 2 14 11 11 24 15 15 5 9 10 9 12 11 10 20 21 23 9 14 18 19
10 11 13 10 3 3 9 3 1 1 4 9 6 9 9 5 3 3 7 8 4 5 5 5 13 5 11 16 15 19 13 3 5 5 5 12 10 18 6 17 17 22 17 18 19
11 14 8 7 3 7 1 4 3 4 5 4 7 16 5 3 4 3 1 6 6 2 4 9 7 14 6 11 14 23 13 5 6 6 3 5 9 11 13 18 8 12 19 19 20
14 5 2 1 4 5 3 4 5 4 3 6 12 4 4 3 4 4 3 2 2 7 4 6 1 4 1 2 4 10 5 4 5 3 3 4 2 7 7 11 13 9 10 17 19
8 3 1 2 2 3 4 2 3 4 2 1 3 3 5 8 7 6 7 4 3 1 3 2 5 4 6 4 3 2 6 4 2 5 4 2 3 5 4 8 7 7 10 12 11
1 2 1 3 3 4 3 4 4 6 4 3 3 4 6 6 6 5 7 4 9 7 6 3 2 2 1 1 4 4 4 3 4 1 3 3 2 4 7 6 9 9 8 8 12
3 2 2 6 4 1 1 2 4 3 3 3 4 4 4 5 5 4 6 6 13 8 5 6 3 4 3 1 3 3 2 4 6 6 1 1 1 6 6 7 7 8 8 3 3
2 2 0 3 3 1 1 3 2 3 3 1 3 4 2 4 5 6 5 8 12 9 7 5 3 3 1 3 3 1 2 2 4 2 4 4 3 5 6 8 7 8 8 7 8
3 1 4 3 0 6 3 3 3 3 3 2 3 5 2 3 3 6 8 5 9 8 12 3 2 1 2 4 2 3 4 2 2 2 5 2 4 6 9 8 9 8 7 7 7
3 2 4 1 3 2 3 3 1 3 2 5 1 8 7 3 4 6 6 6 4 10 6 4 3 2 4 3 2 2 4 6 3 2 2 3 4 1 3 8 6 6 7 8 8
4 4 2 2 1 1 2 2 1 3 1 3 3 5 5 3 4 5 6 4 3 5 5 4 1 2 4 4 5 3 4 6 5 2 3 3 1 3 4 4 8 7 8 8 7
3 3 4 3 1 3 3 3 1 2 1 2 4 3 5 4 4 8 8 9 5 6 6 4 2 3 3 3 4 4 3 1 2 2 0 2 2 4 5 8 8 8 8 8 9

GFSSW_925_spd_216.txt.gz
Wind_Speed
10 11 13 13 14 14 14 14 12 12 12 12 12 13 13 15 16 18 5 9 11 8 9 12 7 3 1 2 2 4 1 5 6 6 4 2 3 2 2 6 1 6 5 5 30
11 12 13 16 16 14 14 14 12 11 12 12 12 13 13 15 18 9 7 18 15 10 7 8 5 5 2 4 3 4 3 7 4 3 4 1 1 0 1 3 2 3 5 25 30
11 14 16 16 15 14 13 12 13 11 12 13 13 13 12 13 6 4 8 19 6 2 2 4 4 5 6 1 5 4 6 3 3 5 2 2 3 2 5 3 5 8 12 20 27
13 15 16 15 15 14 13 12 12 11 12 13 12 12 10 7 2 2 3 10 9 2 2 2 2 2 3 6 4 7 5 4 4 3 3 3 2 3 4 4 1 6 17 18 19
16 14 16 17 17 16 14 13 12 10 12 12 10 9 4 3 7 5 11 12 7 3 2 2 2 1 2 3 7 8 12 7 11 6 6 2 6 5 7 8 3 9 18 22 20
15 18 17 18 18 17 16 14 13 11 11 11 10 8 1 5 3 6 8 10 7 4 3 4 1 3 3 3 1 4 10 13 12 13 6 5 4 5 7 3 5 12 17 18 21
15 17 16 17 16 13 13 12 12 10 9 9 8 7 4 12 6 10 9 7 6 10 3 4 3 4 6 3 6 6 10 14 14 17 8 3 15 15 8 4 8 8 9 13 14
14 15 14 14 12 7 7 9 10 9 8 7 7 5 5 10 11 17 15 11 13 15 6 5 3 2 2 5 7 4 5 9 5 11 7 9 33 12 12 8 9 9 8 10 14
11 12 12 11 10 8 7 8 9 8 7 6 3 4 7 5 4 6 6 2 4 5 5 4 3 3 2 3 4 5 12 13 8 12 11 17 26 10 7 9 10 9 9 12 11
9 9 10 11 10 10 10 10 7 3 2 3 4 1 5 3 2 1 4 5 4 4 4 2 2 3 5 5 9 6 8 9 10 3 14 22 22 9 8 9 9 8 10 10 11
8 8 10 10 12 10 12 2 4 2 3 7 5 3 1 2 2 6 5 7 4 3 6 5 6 16 16 17 13 5 7 9 14 4 5 18 22 13 14 5 7 8 9 11 14
7 9 10 12 12 5 7 3 3 1 8 11 10 6 15 4 5 6 10 4 6 8 8 5 20 8 6 7 9 11 13 18 12 8 9 16 18 19 16 17 8 10 10 13 13
7 8 11 14 5 3 4 2 4 6 3 5 3 2 2 8 5 4 12 6 7 11 14 14 8 11 16 14 14 16 16 16 14 11 10 7 19 15 21 23 16 16 11 12 14
8 7 11 14 1 5 1 2 7 2 3 4 3 2 1 1 5 6 17 6 7 8 14 14 18 12 12 17 16 17 18 17 12 4 12 6 10 16 18 21 24 21 13 13 12
8 7 9 9 5 1 1 5 6 2 5 3 1 1 3 3 8 3 10 6 7 9 7 6 7 16 19 17 18 17 10 12 9 16 6 23 7 6 17 20 22 24 22 16 16
6 7 8 5 6 2 3 6 2 5 4 6 2 3 6 4 3 1 5 6 2 9 11 17 2 8 8 17 16 2 12 8 9 5 10 25 8 8 11 24 20 18 22 20 15
5 6 7 9 2 2 5 1 4 3 4 7 3 4 7 4 4 3 4 7 5 4 8 11 22 7 8 8 9 14 7 2 4 7 12 10 11 24 10 6 16 21 22 21 18
6 7 6 3 3 2 1 5 5 3 5 4 5 11 3 3 4 4 4 4 12 7 3 4 7 16 10 12 9 16 12 4 7 5 13 12 10 7 18 10 5 4 11 15 16
5 3 1 1 5 3 4 4 6 6 3 6 7 4 5 4 3 5 3 3 2 5 5 5 7 3 10 6 13 6 10 18 6 2 4 9 9 2 8 8 8 7 6 7 12
2 2 3 2 4 2 4 4 3 4 2 1 3 0 3 6 7 8 3 1 5 6 7 5 8 5 7 6 6 6 10 7 9 2 10 4 5 1 10 10 8 8 9 7 6
3 3 1 4 4 3 3 6 4 5 3 1 2 4 5 4 5 5 3 7 7 7 10 5 5 2 8 7 12 9 6 6 5 8 4 4 1 4 6 7 8 6 8 9 10
5 1 2 7 3 1 1 4 3 4 2 3 3 4 4 4 5 4 5 4 10 15 10 2 4 1 1 3 4 4 10 13 4 6 8 3 2 5 7 6 5 4 7 6 5
3 1 2 2 2 2 3 4 2 2 3 3 3 3 3 4 5 5 4 6 8 10 11 6 3 3 1 2 5 3 4 5 6 5 2 3 3 4 6 8 8 8 11 11 12
3 1 3 3 1 5 3 3 3 3 4 1 3 2 5 3 4 6 6 5 9 9 21 10 2 5 2 2 2 3 2 6 8 3 2 3 8 4 9 11 12 13 13 12 13
3 4 2 2 2 3 3 3 2 2 3 2 1 1 3 3 5 4 4 10 5 9 9 8 4 2 2 5 2 5 1 3 3 1 3 11 8 4 6 9 7 6 11 14 14
4 4 1 2 2 5 2 4 4 2 3 3 3 4 3 3 4 7 10 5 4 7 6 6 4 4 4 7 10 12 15 6 3 3 4 7 5 5 11 11 14 14 13 13 11
4 4 3 2 3 4 4 5 7 3 3 3 1 2 4 5 5 10 10 13 8 6 4 5 6 4 2 4 4 5 14 13 8 11 5 6 6 7 12 14 14 13 12 11 10

GFSSW_925_spd_219.txt.gz
Wind_Speed
12 12 11 14 14 13 13 12 11 12 11 12 12 13 15 14 17 14 2 9 12 9 9 6 2 1 3 3 3 3 2 4 6 6 5 1 4 0 2 5 3 2 1 2 35
11 12 15 16 16 14 13 13 9 10 11 12 12 13 14 15 16 5 8 16 9 4 4 4 2 3 2 4 4 4 4 7 5 4 4 4 3 2 2 3 3 3 5 17 33
13 15 15 16 15 13 13 13 11 10 10 12 13 14 14 14 3 2 5 13 10 3 2 2 1 1 3 2 5 5 14 4 3 5 3 3 3 1 4 4 6 8 10 18 27
14 16 15 17 17 15 14 12 12 10 9 11 12 12 13 10 1 1 7 11 10 3 2 2 1 3 3 5 4 9 4 5 3 4 2 2 5 5 4 4 2 6 19 20 20
13 16 17 17 17 15 14 14 13 12 10 10 11 10 6 4 5 8 8 7 3 3 4 2 2 1 4 1 4 5 4 5 5 7 6 6 6 5 6 6 5 7 15 20 18
14 16 16 16 17 15 11 11 11 11 10 9 8 8 2 3 1 3 11 12 10 8 5 3 1 1 2 2 2 6 5 6 4 7 4 5 7 4 5 5 4 8 14 16 18
13 14 14 14 14 12 7 7 8 8 8 8 7 6 3 10 4 10 16 10 8 5 2 3 1 4 1 4 5 5 6 10 2 1 4 0 17 19 6 4 6 6 5 10 15
12 12 13 13 13 11 7 6 6 6 6 6 5 2 5 8 13 12 11 4 3 5 5 3 1 3 2 2 5 5 1 5 3 7 7 8 28 4 10 10 14 8 6 9 14
12 11 11 12 12 11 10 9 7 5 4 5 3 1 7 6 5 5 2 4 5 5 6 2 3 2 1 3 2 2 4 10 9 12 7 16 20 17 9 8 14 11 9 10 11
9 9 11 12 13 14 13 7 2 2 1 1 3 2 4 3 3 2 3 4 3 4 4 2 2 2 3 4 6 6 5 5 8 2 6 14 16 10 7 8 16 12 12 11 12
8 8 11 13 16 9 12 2 5 4 1 5 1 2 1 3 3 4 2 3 2 1 2 2 3 9 13 10 2 3 3 5 4 3 7 16 12 10 9 10 11 9 10 11 13
8 8 10 14 11 7 7 4 3 1 6 4 7 5 11 3 4 5 5 2 3 5 2 1 8 11 4 6 8 7 10 17 3 8 5 13 18 13 13 16 13 12 13 14 12
7 7 9 13 6 5 6 4 3 6 1 5 2 2 3 6 4 4 11 4 6 6 8 8 7 2 9 4 8 15 14 6 8 5 11 10 20 15 14 17 17 17 16 11 15
7 7 9 12 2 5 1 2 5 2 3 5 2 1 2 2 4 6 15 4 3 4 7 8 10 15 5 10 14 16 11 16 7 5 5 6 13 17 9 19 20 21 21 21 16
6 6 8 8 4 1 1 6 4 2 5 3 2 2 3 2 6 2 4 3 5 5 3 5 6 8 17 20 12 10 8 13 12 13 4 13 5 5 13 18 18 20 22 23 22
5 4 6 4 6 1 2 5 2 5 3 5 2 3 6 3 3 1 2 2 1 6 13 17 3 7 12 11 16 1 7 4 3 5 8 17 11 5 13 19 13 17 20 24 21
5 4 5 6 2 1 5 3 5 5 3 7 3 4 6 3 3 3 2 4 3 4 6 5 18 14 11 10 13 14 7 3 4 5 8 10 11 14 12 15 15 17 19 20 22
5 4 4 2 3 1 3 5 6 3 5 3 4 6 4 5 2 3 3 3 8 7 4 4 8 10 13 17 8 19 11 5 6 4 11 6 8 6 19 19 23 9 8 15 19
4 1 3 1 4 1 5 4 7 6 3 5 4 5 4 3 1 5 3 3 1 4 4 5 6 3 8 7 12 6 9 10 3 4 6 5 4 2 7 8 10 7 7 7 6
3 4 2 2 5 4 4 4 3 4 2 1 3 2 3 4 3 6 4 2 3 3 5 4 8 2 0 4 5 0 4 4 3 4 5 4 1 3 13 10 12 7 7 7 6
4 3 1 4 5 4 3 6 4 5 3 1 1 3 4 4 2 2 5 4 5 6 10 7 5 4 3 5 8 4 4 4 5 2 3 5 3 7 7 9 5 6 7 10 9
4 2 0 7 3 1 2 5 3 2 2 2 2 3 3 4 4 3 3 2 7 8 9 2 4 5 3 3 4 9 7 5 4 4 4 5 4 6 7 7 6 7 10 11 10
3 2 2 1 2 2 4 3 2 3 4 3 3 4 2 4 4 4 4 5 7 9 5 5 3 5 2 0 3 7 10 11 6 1 5 0 3 5 5 11 8 10 11 13 15
3 2 3 2 0 6 4 4 2 4 3 3 3 1 3 3 5 5 4 5 13 6 19 9 3 3 3 4 3 3 4 16 13 4 3 5 6 5 9 11 11 12 13 13 13
2 3 3 3 3 3 4 5 2 2 3 4 2 3 2 4 5 3 3 7 7 6 11 6 3 2 3 5 9 12 11 4 10 5 2 4 3 10 11 11 10 10 10 14 16
5 4 1 3 3 5 1 4 7 3 5 4 4 2 4 5 6 5 1 3 4 8 6 6 4 3 2 3 10 17 20 14 8 7 6 9 8 5 8 10 14 14 13 14 13
5 2 3 5 3 4 4 5 7 5 4 3 3 1 4 8 5 7 6 8 9 8 5 5 5 4 3 6 4 6 10 11 5 9 4 8 4 4 11 12 13 14 13 13 12

GFSSW_925_spd_222.txt.gz
Wind_Speed
10 9 13 14 13 11 9 8 7 8 9 10 10 11 12 14 16 5 6 9 14 16 11 9 4 5 7 7 6 3 8 13 18 13 12 2 2 1 4 5 3 5 2 1 25
12 12 13 14 13 11 10 8 8 7 9 11 12 12 13 14 7 5 5 12 14 4 3 4 4 3 7 13 6 9 13 15 7 11 12 8 8 10 5 7 6 4 3 15 28
12 13 13 14 15 14 12 10 7 7 8 10 11 12 14 14 1 2 6 11 9 5 2 4 5 3 9 8 15 11 17 13 7 10 13 13 10 4 6 8 9 10 10 19 28
13 15 15 16 16 15 11 11 9 7 7 10 12 12 13 6 2 4 9 10 8 6 3 2 1 4 6 12 13 12 15 12 14 15 11 8 6 11 9 10 5 7 12 19 21
15 15 16 14 16 14 11 9 8 8 8 8 10 11 7 4 1 6 8 9 5 3 7 3 1 1 6 3 7 13 10 8 5 4 10 10 14 15 15 13 9 3 10 17 17
13 16 15 15 14 13 9 6 6 6 6 7 7 7 4 4 1 2 8 12 11 7 5 4 2 2 0 2 4 4 7 11 9 8 8 10 17 14 14 13 9 2 8 13 18
13 14 14 14 14 12 10 6 5 5 6 5 6 3 4 6 3 8 12 9 8 4 2 3 3 2 1 2 3 3 8 11 14 15 14 8 21 23 17 18 19 15 6 10 13
11 11 12 13 13 13 11 8 6 5 5 4 4 1 4 4 8 7 5 2 2 2 3 4 2 1 2 3 2 2 6 9 10 17 9 14 28 11 13 19 22 23 16 12 14
10 10 12 13 15 14 12 11 7 5 4 3 2 2 3 6 3 5 3 3 5 4 2 3 1 0 2 3 3 4 6 9 10 10 9 18 16 8 14 18 16 17 18 16 15
8 9 11 13 16 12 12 6 4 4 4 1 2 4 1 3 3 3 3 3 3 3 3 1 1 3 3 5 4 4 5 5 10 0 12 21 21 19 15 11 14 20 20 17 17
8 8 10 13 15 11 12 1 3 2 4 3 4 4 2 4 5 2 2 1 1 1 1 3 4 8 7 10 9 3 6 9 6 7 10 16 18 18 12 13 18 19 17 16 17
7 8 10 12 9 10 8 5 5 3 6 3 6 7 8 5 4 3 3 3 2 3 4 2 8 11 9 8 10 13 14 16 16 16 13 17 23 19 22 17 18 17 20 21 18
5 7 9 13 6 8 9 6 3 5 3 3 3 3 2 2 2 4 6 1 3 4 7 7 5 2 5 7 11 13 14 13 14 11 15 16 26 25 26 23 21 22 22 21 21
3 6 8 11 2 5 3 2 4 2 2 5 3 1 1 3 3 4 7 2 3 4 5 8 7 9 12 14 11 13 7 13 13 8 6 0 10 14 13 20 21 22 23 23 22
2 3 6 7 2 2 1 6 2 1 2 3 2 2 3 3 8 1 3 3 6 5 2 3 5 7 12 12 9 7 8 9 12 13 13 19 9 7 14 19 23 18 20 23 25
2 2 4 3 4 1 2 4 1 1 1 4 4 4 8 1 2 1 2 2 2 3 9 16 8 7 16 10 12 2 7 12 9 9 8 19 15 14 16 19 21 18 21 21 22
3 1 3 3 1 1 5 1 2 1 2 5 4 7 8 3 3 1 2 3 3 4 3 5 12 10 10 8 10 12 4 4 6 7 8 7 12 20 18 19 24 22 19 23 19
4 2 3 2 1 1 1 2 1 1 4 3 4 9 4 6 2 4 3 3 2 4 4 5 8 7 9 9 5 15 14 6 7 5 8 6 9 13 19 21 21 24 20 21 16
5 2 3 1 3 1 1 3 2 5 1 4 4 3 4 3 5 5 4 4 1 1 3 5 5 1 6 7 4 3 10 7 2 4 6 9 16 12 10 4 9 8 7 10 10
5 4 2 2 1 2 1 1 2 3 2 4 2 1 4 7 6 9 3 3 3 4 4 3 8 2 1 2 5 2 3 3 4 4 8 7 7 5 12 13 11 11 10 9 6
6 3 4 5 4 1 2 3 3 5 5 2 1 3 4 5 7 5 4 2 1 9 7 4 5 1 3 6 9 4 4 7 3 6 4 5 4 2 6 9 9 9 11 11 10
5 1 1 7 1 1 2 6 3 3 3 4 2 3 3 5 4 4 3 3 5 8 8 2 4 6 5 1 5 11 7 12 4 3 4 6 7 6 8 8 8 12 8 10 12
3 2 2 3 3 3 1 2 3 5 4 5 4 6 5 2 4 5 5 3 4 8 2 5 3 6 2 2 2 4 10 11 5 2 11 3 2 5 10 10 8 7 9 12 15
3 2 1 2 1 4 4 2 3 4 3 3 2 2 3 2 4 5 6 5 9 6 9 5 3 4 6 4 5 4 6 15 11 4 4 6 3 5 8 8 10 12 15 16 16
2 2 1 4 6 5 4 6 4 4 4 4 2 7 4 2 3 4 3 9 5 4 10 5 3 2 2 6 5 12 14 13 17 17 5 6 7 8 8 7 12 13 14 16 17
4 4 1 2 4 8 5 6 8 4 7 5 5 5 6 5 7 4 5 4 4 7 9 8 3 4 3 3 8 11 16 15 9 6 6 3 9 5 5 6 11 13 14 16 16
5 4 1 5 4 5 5 6 8 7 6 2 6 3 8 13 9 10 9 11 12 11 6 5 5 3 2 6 3 4 11 9 6 11 4 7 4 6 9 13 12 11 13 14 14